EHI
0 0 0 0 0 0 0 0 0 0 0 0 0 0 0 0 0 0 1 2 3 2 1 0 1 2 2 1 0 0 0 0 0 0 0 0 0 0 0 0 0 0 0
0 0 0 0 0 0 1 1 0 0 0 0 0 0 0 0 0 0 0 1 2 1 0 0 0 1 1 0 0 0 0 0 0 0 0 0 0 0 0 0 0 0 0
0 0 0 0 0 1 1 1 1 1 1 1 0 0 0 0 0 0 0 0 0 0 0 0 0 0 0 0 0 0 0 1 1 1 0 0 0 0 0 0 0 0 0
1 1 0 0 1 2 2 1 2 2 2 1 1 0 0 0 0 0 0 0 0 1 1 1 1 0 0 0 0 0 0 1 1 1 1 0 0 0 0 0 0 0 0
2 1 1 1 1 2 2 2 3 3 2 1 1 1 0 0 0 0 1 1 1 2 2 2 1 0 0 0 0 0 1 1 1 2 1 0 0 0 0 0 0 0 0
3 2 2 2 3 3 3 3 3 3 3 2 1 1 0 0 0 0 1 2 2 2 2 1 0 0 0 0 1 2 2 3 2 2 2 1 1 0 0 0 0 0 0
3 3 4 5 4 3 3 3 3 3 3 3 2 1 0 0 0 0 1 1 1 1 1 0 0 0 0 1 2 3 4 4 3 3 2 2 1 0 0 0 0 0 0
5 6 7 7 5 4 3 3 3 3 3 3 3 2 1 1 1 0 0 1 1 1 0 0 1 1 2 3 4 4 5 4 3 2 1 1 1 0 0 0 0 0 0
7 9 10 9 7 5 4 3 3 3 3 3 3 3 2 2 1 0 0 1 2 2 1 1 2 4 4 5 5 4 3 2 1 1 0 0 0 0 0 0 0 0 0
9 11 12 11 9 7 5 4 3 3 3 3 3 3 3 3 1 0 0 1 1 2 2 1 2 3 3 4 5 4 2 1 1 1 1 1 0 0 0 0 0 0 0
8 10 12 13 11 9 6 4 3 4 4 4 4 4 5 4 3 1 0 1 1 2 2 1 1 2 2 3 5 4 2 1 1 2 2 1 0 0 0 0 0 0 0
7 8 10 11 12 10 7 5 5 6 6 6 6 6 6 6 5 4 3 3 2 1 1 1 1 2 3 4 4 3 1 0 1 1 1 1 0 0 0 0 0 0 0
7 7 8 9 10 10 9 7 7 8 8 7 7 8 7 6 7 7 6 5 4 1 0 1 2 3 3 3 2 1 1 0 0 0 0 0 0 0 0 0 0 0 0
8 8 8 8 10 11 10 10 10 9 8 9 8 8 7 8 8 8 8 8 6 3 0 1 2 3 3 3 1 0 0 0 0 0 0 0 0 0 0 0 0 0 0
9 10 10 11 12 12 12 12 11 10 10 11 10 8 8 8 10 9 9 9 9 5 1 1 1 2 2 1 0 0 0 0 0 0 0 0 0 0 0 0 0 0 0
15 14 13 14 15 14 13 13 12 11 12 12 11 10 8 8 9 9 9 9 9 7 4 2 3 2 1 1 0 0 0 0 0 0 0 0 0 0 0 0 0 0 0
20 18 17 17 18 17 15 14 13 13 13 13 11 9 8 7 8 8 8 8 9 9 6 4 5 5 3 2 1 0 1 1 0 0 0 0 0 0 0 0 0 0 0
21 21 20 20 20 18 16 15 15 15 14 12 10 8 7 7 6 7 7 8 9 9 6 5 6 5 4 2 1 1 1 0 0 0 0 0 0 0 0 0 0 0 0
20 19 19 19 19 17 17 16 16 15 14 11 9 7 6 7 7 7 7 8 9 8 7 5 4 3 2 1 0 0 0 0 0 0 0 0 0 0 0 0 0 0 0
16 15 15 16 16 15 14 14 14 15 14 12 10 8 7 7 8 7 7 7 9 9 7 6 4 2 1 1 0 0 0 1 1 0 0 0 0 0 0 0 0 0 0
13 14 13 13 13 12 11 11 12 13 13 13 12 10 8 7 6 5 5 6 7 8 7 5 4 2 1 2 1 0 0 1 2 1 0 1 1 1 1 0 0 0 0
16 15 14 12 11 9 8 8 9 11 12 12 12 11 8 6 3 2 2 2 4 5 4 3 3 2 1 1 0 0 0 1 2 1 0 0 1 1 1 0 0 0 0
21 17 14 12 10 8 7 5 6 8 11 11 11 10 7 4 3 2 2 2 2 2 1 1 1 1 0 0 0 0 0 1 2 1 0 0 0 1 1 0 0 0 0
22 18 13 11 10 8 5 3 3 6 9 9 9 8 6 4 4 4 4 5 4 2 1 0 0 0 0 0 0 0 0 0 1 1 0 0 0 0 0 0 0 0 0
20 17 12 11 10 8 3 1 2 4 6 7 7 6 5 4 4 4 5 6 5 2 1 0 0 0 0 0 0 0 0 0 0 0 0 0 0 0 0 0 0 0 0
19 15 10 9 9 6 2 0 1 3 4 5 5 4 4 4 3 3 5 5 3 1 0 0 0 0 0 0 0 0 0 0 0 0 0 0 0 0 0 0 0 0 0
Wind_Speed
1 2 1 0 1 2 3 2 2 3 2 3 3 3 2 2 2 2 5 8 7 6 6 6 7 7 7 7 7 7 7 7 7 6 6 7 6 6 6 7 7 7 7
1 1 2 1 1 1 1 1 2 2 1 1 2 2 1 1 2 2 3 7 8 7 6 6 7 7 7 7 7 7 8 8 8 8 7 7 7 7 7 7 7 7 7
1 1 1 2 1 1 2 2 2 1 2 2 2 2 1 1 2 2 2 2 5 8 8 6 6 7 7 8 8 8 8 8 8 8 8 8 8 8 8 8 8 8 8
1 1 1 1 1 2 2 1 2 1 1 1 1 1 1 1 2 3 3 3 2 3 7 8 7 7 8 8 9 9 9 8 8 8 8 8 9 9 9 9 9 9 9
1 2 1 0 2 2 2 2 2 1 1 1 1 2 2 2 1 2 2 2 2 2 3 7 9 7 7 7 7 8 9 8 8 8 9 9 9 9 9 9 9 9 9
2 2 2 1 2 2 2 1 1 1 1 1 2 1 1 1 2 2 2 2 2 2 2 3 5 7 8 6 6 6 8 8 8 8 8 8 9 8 8 8 8 9 9
2 2 2 2 3 2 2 2 2 2 2 2 2 2 2 2 1 1 1 1 1 1 1 1 3 3 5 8 5 5 6 7 7 7 7 7 7 7 7 8 8 8 9
2 2 2 2 2 2 3 3 3 2 2 2 2 2 2 3 2 1 1 1 1 1 1 1 0 1 2 2 4 4 4 5 6 6 6 6 6 6 6 7 7 8 9
1 2 2 2 2 3 2 3 3 4 3 3 3 3 2 1 1 2 2 1 1 1 0 1 1 0 1 0 2 3 3 2 4 5 5 5 5 6 6 6 6 5 6
1 1 2 2 2 2 2 4 3 3 4 3 3 3 3 2 2 2 2 2 2 1 1 1 0 1 1 1 2 5 3 1 1 2 2 2 3 4 5 5 5 5 4
1 1 2 2 2 2 2 3 2 4 4 4 3 2 2 3 4 3 2 2 1 1 1 0 0 1 2 1 2 5 6 4 2 1 1 1 1 1 2 3 4 4 3
1 0 1 2 2 2 2 3 3 3 3 4 4 3 3 3 3 2 2 2 1 1 1 1 1 2 2 2 4 7 7 5 4 4 4 4 4 4 4 3 2 1 1
0 0 1 1 2 2 2 3 3 3 3 3 4 3 3 3 2 2 3 2 1 1 1 1 2 2 2 3 4 8 8 7 7 7 7 7 7 7 7 7 6 5 5
1 1 1 1 2 2 2 2 2 2 1 2 3 3 3 2 2 3 2 2 2 1 1 2 3 3 3 3 5 5 6 9 8 8 9 8 8 8 8 8 7 7 7
0 0 1 1 1 1 1 2 1 1 1 1 2 2 2 2 2 2 2 3 3 2 1 2 2 2 2 3 4 4 5 9 9 8 8 8 8 8 9 9 9 8 8
1 1 1 1 1 1 1 1 1 0 0 1 1 1 2 1 1 1 2 2 2 2 1 2 2 2 2 3 5 5 6 11 9 9 8 8 8 8 8 8 8 9 9
1 0 0 0 0 0 0 0 0 0 0 0 1 1 1 1 1 1 1 1 1 1 2 2 2 3 3 3 4 4 4 4 6 9 8 8 8 8 8 8 8 8 8
1 1 1 1 0 0 0 0 0 0 0 0 1 1 1 0 0 1 0 1 1 2 3 4 3 3 4 4 4 3 4 4 5 9 8 8 7 7 7 7 7 7 7
1 1 1 1 1 1 1 1 1 0 0 0 1 1 1 1 1 0 0 1 1 2 3 4 4 3 4 4 4 4 4 2 4 7 9 8 7 7 6 6 6 6 6
2 2 1 1 1 1 1 1 1 1 1 1 1 1 1 1 1 0 1 1 1 2 3 4 4 4 3 3 3 3 3 3 2 3 5 5 7 7 6 6 6 5 4
2 2 2 2 1 1 1 1 1 2 1 1 1 1 2 4 5 4 2 1 2 2 3 4 4 3 3 3 3 2 3 3 3 2 3 3 4 4 5 7 6 5 4
2 2 2 2 2 2 4 3 1 2 2 2 2 2 3 4 6 7 7 7 5 2 2 2 2 3 3 3 2 2 2 2 2 2 1 2 1 2 2 4 6 5 3
3 2 2 2 2 3 3 2 1 1 2 2 2 2 2 5 4 5 6 6 6 6 4 1 1 1 2 2 2 3 1 1 0 2 1 1 2 1 1 5 8 4 3
3 2 2 2 2 3 2 1 1 2 3 3 3 3 3 4 3 3 4 5 4 4 2 1 1 1 1 1 2 2 2 3 2 2 1 1 1 1 1 4 8 5 4
3 3 3 2 2 3 2 2 3 3 3 3 3 3 2 3 4 2 2 4 4 4 5 5 5 4 5 3 1 2 2 3 2 3 1 2 1 1 1 2 6 8 6
4 3 3 2 3 3 3 2 3 2 3 3 3 4 4 3 3 1 1 2 3 2 3 5 4 4 4 4 3 2 2 2 1 2 3 1 1 1 1 2 2 4 5
Wind_Direction
141 127 125 135 161 138 148 144 127 119 124 137 148 139 133 115 125 135 134 151 167 179 185 187 187 187 189 192 195 198 198 196 197 196 199 203 206 212 217 218 213 214 213
108 163 166 175 176 169 129 143 127 136 131 111 129 124 145 144 128 166 158 156 170 183 194 201 202 199 198 199 200 205 210 209 207 208 211 213 216 221 226 225 221 221 218
149 228 174 189 171 171 162 181 151 164 167 155 136 126 159 174 149 173 194 186 174 180 188 199 204 207 207 208 208 210 214 213 212 212 216 217 220 224 229 229 228 227 222
204 241 237 193 184 204 193 185 215 195 181 180 154 189 176 170 182 194 197 197 208 185 181 189 200 209 214 217 217 214 217 218 219 219 221 224 226 227 229 230 231 229 226
194 226 252 264 223 213 213 232 173 212 187 207 203 195 216 203 200 207 204 212 199 215 194 169 188 203 213 224 226 221 218 219 219 224 228 232 233 232 231 231 231 231 231
203 237 212 224 245 223 219 219 215 219 231 220 252 207 232 210 217 213 224 207 202 214 220 196 191 191 198 213 227 228 222 219 217 220 227 233 235 235 233 232 233 234 235
217 236 266 217 247 241 241 231 225 207 213 194 229 221 199 183 185 193 229 227 178 198 228 229 231 224 183 188 208 219 220 219 217 216 220 226 230 232 231 232 232 234 236
250 224 241 252 228 231 231 233 226 249 235 210 244 255 225 175 167 167 165 174 193 157 154 166 204 244 264 180 153 186 212 219 219 217 216 217 224 227 231 232 232 233 236
261 293 269 272 264 245 226 242 235 232 242 231 235 260 266 236 162 149 139 123 103 83 103 82 77 70 263 307 132 145 178 209 222 224 222 219 216 222 227 227 227 228 231
277 275 272 263 262 262 247 250 237 249 245 247 230 244 269 296 243 191 166 145 135 98 38 37 69 121 123 121 71 61 87 104 227 253 253 232 222 219 215 220 224 228 229
248 285 280 269 266 268 269 275 278 266 256 257 256 249 238 225 237 238 213 179 164 118 100 92 41 43 67 62 61 70 79 79 80 83 74 62 91 133 187 211 222 223 222
203 255 277 277 272 289 291 279 275 265 273 272 271 263 254 247 237 238 225 208 193 134 88 48 56 60 52 62 63 69 77 78 85 88 82 68 67 72 74 79 85 92 110
269 339 294 289 297 297 287 279 266 276 270 266 266 271 267 263 258 244 226 216 199 185 130 91 72 71 64 70 77 84 82 82 83 83 81 77 72 70 68 65 65 65 65
339 354 311 293 289 291 288 278 270 262 264 270 274 285 284 275 260 243 231 217 207 199 169 125 81 70 68 71 74 89 84 84 86 86 83 79 76 74 71 69 68 68 66
277 282 293 291 285 284 291 271 285 292 285 275 273 261 272 275 266 258 242 234 232 220 187 134 114 86 93 82 85 89 84 87 91 91 88 85 83 79 77 75 74 74 75
310 289 301 292 271 262 260 269 246 22 298 318 318 331 300 296 283 254 243 237 244 238 211 98 98 99 88 102 98 99 96 97 88 90 90 88 86 84 82 78 77 77 76
261 272 288 287 280 265 213 219 294 136 54 24 357 31 2 341 317 275 252 219 214 170 155 117 109 113 117 108 109 109 108 108 99 97 93 90 88 86 83 81 81 81 80
197 174 166 135 95 66 95 170 200 88 87 61 20 16 355 1 307 296 289 167 156 163 162 143 140 139 124 121 117 119 109 105 103 105 106 99 93 88 85 84 83 82 79
168 158 144 143 116 99 113 123 123 103 97 50 10 4 352 335 308 26 227 149 163 157 151 151 146 134 134 136 133 116 107 110 117 125 124 116 107 101 97 92 87 84 81
152 147 139 149 138 130 137 136 134 129 124 100 58 30 14 350 347 353 126 134 147 141 144 152 143 142 138 149 157 149 144 139 125 121 107 120 128 131 122 114 105 96 92
144 146 157 142 137 140 85 89 151 145 142 125 102 84 69 55 42 25 26 84 139 155 150 145 146 146 146 166 179 181 160 154 140 133 145 142 147 147 145 142 122 104 102
144 147 148 136 120 77 53 22 335 133 128 125 118 113 113 105 89 74 58 53 45 78 124 150 152 150 160 177 173 188 182 175 156 148 193 146 146 132 135 113 109 114 111
137 145 148 143 121 84 66 55 349 146 122 103 101 96 88 93 106 102 100 104 81 58 40 1 126 148 156 170 190 188 182 205 141 125 190 166 160 162 141 110 123 130 130
135 138 142 136 129 105 88 113 214 161 121 108 104 102 101 103 91 94 110 104 100 91 81 108 98 92 83 120 205 200 174 175 173 136 204 250 167 176 143 134 143 156 166
144 147 132 129 131 114 107 168 235 158 134 124 117 105 111 115 77 39 125 119 114 120 106 87 67 73 71 78 322 233 189 201 190 150 163 259 170 213 190 158 153 171 183
153 151 131 132 128 114 110 155 253 177 141 142 136 132 105 96 93 35 143 131 134 124 128 135 138 156 156 150 198 256 257 245 228 161 132 238 213 233 211 173 170 172 188